CW5210 Weather Reports


Display with metric or nautical units.
time (UTC)temp
F
wind
direction
speed
MPH
gust
MPH
rain 1hr
in
rain 24hr
in
rain mn
in
humidity
%
barometer
mb
20260502163033 62 0 0.0 2.0 0.00 0.00 0.00 34 1020.6
20260502161533 60 0 1.0 3.0 0.00 0.00 0.00 33 1020.6
20260502151536 55 0 0.0 2.0 0.00 0.00 0.00 39 1020.9
20260502123037 39 0 0.0 0.0 0.00 0.00 0.00 71 1020.4
20260502121536 39 0 0.0 0.0 0.00 0.00 0.00 72 1020.3
20260502114534 39 0 0.0 0.0 0.00 0.00 0.00 70 1020.2
20260502113039 39 0 0.0 1.0 0.00 0.00 0.00 67 1020.3
20260502111530 40 0 0.0 0.0 0.00 0.00 0.00 63 1020.4
20260502110038 40 0 0.0 0.0 0.00 0.00 0.00 61 1020.5
20260502104537 41 0 0.0 0.0 0.00 0.00 0.00 59 1020.6
20260502103034 41 0 0.0 1.0 0.00 0.00 0.00 58 1020.4
20260502101535 43 0 0.0 1.0 0.00 0.00 0.00 56 1020.1
20260502071533 45 0 0.0 0.0 0.00 0.00 0.00 60 1019.8
20260502070054 45 0 0.0 2.0 0.00 0.00 0.00 61 1020.0
20260502064534 46 0 0.0 2.0 0.00 0.00 0.00 60 1019.8
20260502063035 46 0 0.0 1.0 0.00 0.00 0.00 58 1019.8
20260502061537 47 0 0.0 1.0 0.00 0.00 0.00 54 1019.9
20260502060042 48 0 0.0 0.0 0.00 0.00 0.00 52 1019.8
20260502054540 49 0 0.0 2.0 0.00 0.00 0.00 49 1019.8
20260502053031 49 0 0.0 1.0 0.00 0.00 0.00 49 1019.7
20260502051537 49 0 0.0 0.0 0.00 0.00 0.00 50 1019.7
20260502050032 50 0 0.0 1.0 0.00 0.00 0.00 49 1019.7
20260502044531 51 0 0.0 0.0 0.00 0.00 0.00 47 1019.8
20260502043037 51 0 0.0 1.0 0.00 0.00 0.00 47 1019.8
20260502041556 53 0 0.0 0.0 0.00 0.00 0.00 43 1019.6
20260502040048 53 0 0.0 0.0 0.00 0.00 0.00 43 1019.5
20260502034533 54 0 0.0 0.0 0.00 0.00 0.00 42 1019.4
20260502033034 55 0 0.0 0.0 0.00 0.00 0.00 39 1019.2
20260502031535 56 0 0.0 1.0 0.00 0.00 0.00 38 1019.1
20260502030049 57 0 0.0 4.0 0.00 0.00 0.00 36 1018.7
20260502024532 58 296 0.0 3.0 0.00 0.00 0.00 37 1018.8
20260502023046 58 0 0.0 2.0 0.00 0.00 0.00 39 1018.7
20260502021532 60 0 0.0 2.0 0.00 0.00 0.00 39 1018.7
20260502020036 60 0 0.0 3.0 0.00 0.00 0.00 39 1018.5
20260502014539 61 290 0.0 7.0 0.00 0.00 0.00 37 1018.3
20260502013032 62 0 2.0 10.0 0.00 0.00 0.00 36 1018.3
20260502011538 63 313 2.0 9.0 0.00 0.00 0.00 34 1018.1
20260502010034 64 310 3.0 12.0 0.00 0.00 0.00 33 1018.1
20260502004534 65 325 2.0 11.0 0.00 0.00 0.00 28 1018.1
20260502003033 65 360 1.0 8.0 0.00 0.00 0.00 27 1018.1
20260502001538 66 0 2.0 11.0 0.00 0.00 0.00 26 1018.2
20260502000049 66 311 2.0 8.0 0.00 0.00 0.00 26 1018.3
20260501234530 67 287 2.0 9.0 0.00 0.00 0.00 25 1018.3
20260501233038 67 54 2.0 9.0 0.00 0.00 0.00 24 1018.4
20260501231533 67 333 2.0 10.0 0.00 0.00 0.00 25 1018.4
20260501230105 67 26 3.0 11.0 0.00 0.00 0.00 25 1018.5
20260501224544 67 340 3.0 9.0 0.00 0.00 0.00 23 1018.6
20260501223031 66 348 4.0 13.0 0.00 0.00 0.00 26 1018.7
20260501221530 66 352 2.0 9.0 0.00 0.00 0.00 25 1018.9
20260501220038 66 337 4.0 14.0 0.00 0.00 0.00 27 1019.0
20260501214533 66 0 3.0 12.0 0.00 0.00 0.00 26 1019.1
20260501213036 66 344 3.0 14.0 0.00 0.00 0.00 27 1019.1
20260501211536 66 38 2.0 10.0 0.00 0.00 0.00 27 1019.2
20260501210030 66 329 3.0 14.0 0.00 0.00 0.00 25 1019.3
20260501204533 66 61 2.0 12.0 0.00 0.00 0.00 27 1019.2
20260501203033 66 16 2.0 11.0 0.00 0.00 0.00 25 1019.2
20260501201531 66 317 2.0 12.0 0.00 0.00 0.00 27 1019.2
20260501200032 67 275 3.0 12.0 0.00 0.00 0.00 25 1019.3
20260501194532 66 226 1.0 9.0 0.00 0.00 0.00 26 1019.4
20260501193036 66 277 2.0 8.0 0.00 0.00 0.00 22 1019.5
20260501191535 65 0 1.0 8.0 0.00 0.00 0.00 23 1019.7
20260501190033 65 313 0.0 4.0 0.00 0.00 0.00 25 1020.0
20260501184531 64 0 0.0 4.0 0.00 0.00 0.00 23 1020.1
20260501183030 63 344 0.0 9.0 0.00 0.00 0.00 26 1020.2
20260501181532 64 323 2.0 9.0 0.00 0.00 0.00 22 1020.2
20260501180035 64 146 0.0 4.0 0.00 0.00 0.00 26 1020.4
20260501174537 63 100 1.0 8.0 0.00 0.00 0.00 29 1020.6
20260501173032 61 0 2.0 11.0 0.00 0.00 0.00 21 1020.6
20260501171531 60 76 2.0 13.0 0.00 0.00 0.00 27 1020.8